Location: *
(24.1434°N, 56.8729°E)
Time: 05:14:58
(UTC+00:00)

ATLAS 5 CENTAUR R/B - Pass Details

Date: 09 April 2020
Orbit: 543 x 1116 km, 63.4° (Epoch: 01 May)

Event Time Altitude Azimuth Distance (km) Brightness Sun altitude
Rises 14:45:55 0° 205° (SSW) 2,698 5.0 -4.0°
Reaches altitude 10° 14:48:06 10° 205° (SSW) 1,797 4.1 -4.5°
Maximum altitude 14:52:04 86° 116° (ESE) 553 1.3 -5.4°
Drops below altitude 10° 14:56:13 10° 28° (NNE) 1,880 3.9 -6.3°
Sets 14:58:32 0° 28° (NNE) 2,835 4.8 -6.8°
